Location: Sternwarte auf dem Internationalen Platz Vogelsang IP
(50.5721°N, 6.4398°E)
Time: 11:28:22
(UTC+01:00)

ACS3 Solar Sail - Pass Details

Date: 22 November 2025
Orbit: 888 x 1003 km, 97.3° (Epoch: 07 December)

Event Time Altitude Azimuth Distance (km) Brightness Sun altitude
Rises 03:35:27 0° 15° (NNE) 3,587 5.1 -41.2°
Reaches altitude 10° 03:37:54 10° 19° (NNE) 2,656 4.4 -40.9°
Enters shadow 03:39:24 19° 23° (NNE) 2,110 3.8 -40.6°
